Location: Moscow
(55.7500°N, 37.5830°E)
Time: 11:47:46
(UTC+03:00)

A-11 Canister half - Pass Details

Date: 02 December 2021
Orbit: 1516 x 1684 km, 47.2° (Epoch: 24 January)

Event Time Altitude Azimuth Distance (km) Brightness Sun altitude
Rises 09:02:37 0° 233° (SW) 4,796 11.5 1.8°
Reaches altitude 10° 09:05:51 10° 227° (SW) 3,836 11.1 2.2°
Maximum altitude 09:14:56 45° 159° (SSE) 2,144 10.6 3.0°
Drops below altitude 10° 09:24:16 10° 92° (E) 3,941 11.9 3.9°
Sets 09:27:38 0° 86° (E) 4,938 12.2 4.2°
